Time,TemperatureF,DewpointF,PressureIn,WindDirection,WindDirectionDegrees,WindSpeedMPH,WindSpeedGustMPH,Humidity,HourlyPrecipIn,Conditions,Clouds,dailyrainin,SolarRadiationWatts/m^2,SoftwareType,DateUTC
2013-02-20 00:11:00,34.0,31.0,-100.00,ESE,123,1.0,6.0,87,0.00,,,0.26,0.000000,,2013-02-20 08:11:00,
2013-02-20 00:21:00,34.0,31.0,-100.00,ESE,123,1.0,6.0,87,0.00,,,0.26,0.000000,,2013-02-20 08:21:00,
2013-02-20 00:31:00,34.0,31.0,-100.00,ESE,123,1.0,6.0,87,0.00,,,0.26,0.000000,,2013-02-20 08:31:00,
2013-02-20 00:41:00,34.0,31.0,-100.00,ESE,123,1.0,6.0,87,0.00,,,0.26,0.000000,,2013-02-20 08:41:00,
2013-02-20 00:50:00,33.0,31.0,-100.00,East,98,1.0,5.0,93,0.00,,,-99.99,0.000000,,2013-02-20 08:50:00,
2013-02-20 01:11:00,33.0,31.0,-100.00,East,98,1.0,5.0,93,0.00,,,-99.99,0.000000,,2013-02-20 09:11:00,
2013-02-20 01:21:00,33.0,31.0,-100.00,East,98,1.0,5.0,93,0.00,,,-99.99,0.000000,,2013-02-20 09:21:00,
2013-02-20 01:31:00,33.0,31.0,-100.00,East,98,1.0,5.0,93,0.00,,,-99.99,0.000000,,2013-02-20 09:31:00,
2013-02-20 01:41:00,33.0,31.0,-100.00,East,98,1.0,5.0,93,0.00,,,-99.99,0.000000,,2013-02-20 09:41:00,
2013-02-20 01:50:00,32.0,30.0,-100.00,NE,35,2.0,4.0,94,0.00,,,0.26,0.000000,,2013-02-20 09:50:00,
2013-02-20 02:12:00,32.0,30.0,-100.00,NE,35,2.0,4.0,94,0.00,,,0.26,0.000000,,2013-02-20 10:12:00,
2013-02-20 02:21:00,32.0,30.0,-100.00,NE,35,2.0,4.0,94,0.00,,,0.26,0.000000,,2013-02-20 10:21:00,
2013-02-20 02:31:00,32.0,30.0,-100.00,NE,35,2.0,4.0,94,0.00,,,0.26,0.000000,,2013-02-20 10:31:00,
2013-02-20 02:41:00,32.0,30.0,-100.00,NE,35,2.0,4.0,94,0.00,,,0.26,0.000000,,2013-02-20 10:41:00,
2013-02-20 02:50:00,32.0,31.0,-100.00,ESE,117,2.0,5.0,96,0.00,,,0.26,0.000000,,2013-02-20 10:50:00,
2013-02-20 03:21:00,32.0,31.0,-100.00,ESE,117,2.0,5.0,96,0.00,,,0.26,0.000000,,2013-02-20 11:21:00,
2013-02-20 03:32:00,32.0,31.0,-100.00,ESE,117,2.0,5.0,96,0.00,,,0.26,0.000000,,2013-02-20 11:32:00,
2013-02-20 03:41:00,32.0,31.0,-100.00,ESE,117,2.0,5.0,96,0.00,,,0.26,0.000000,,2013-02-20 11:41:00,
2013-02-20 03:50:00,30.0,29.0,-100.00,ESE,116,0.0,5.0,95,0.00,,,0.25,0.000000,,2013-02-20 11:50:00,
2013-02-20 04:12:00,30.0,29.0,-100.00,ESE,116,0.0,5.0,95,0.00,,,0.25,0.000000,,2013-02-20 12:12:00,
2013-02-20 04:21:00,30.0,29.0,-100.00,ESE,116,0.0,5.0,95,0.00,,,0.25,0.000000,,2013-02-20 12:21:00,
2013-02-20 04:31:00,30.0,29.0,-100.00,ESE,116,0.0,5.0,95,0.00,,,0.25,0.000000,,2013-02-20 12:31:00,
2013-02-20 04:42:00,30.0,29.0,-100.00,ESE,116,0.0,5.0,95,0.00,,,0.25,0.000000,,2013-02-20 12:42:00,
2013-02-20 04:50:00,30.0,29.0,-100.00,ESE,116,2.0,4.0,96,0.00,,,0.25,0.000000,,2013-02-20 12:50:00,
2013-02-20 05:11:00,30.0,29.0,-100.00,ESE,116,2.0,4.0,96,0.00,,,0.25,0.000000,,2013-02-20 13:11:00,
2013-02-20 05:22:00,30.0,29.0,-100.00,ESE,116,2.0,4.0,96,0.00,,,0.25,0.000000,,2013-02-20 13:22:00,
2013-02-20 05:31:00,30.0,29.0,-100.00,ESE,116,2.0,4.0,96,0.00,,,0.25,0.000000,,2013-02-20 13:31:00,
2013-02-20 05:42:00,30.0,29.0,-100.00,ESE,116,2.0,4.0,96,0.00,,,0.25,0.000000,,2013-02-20 13:42:00,
2013-02-20 05:50:00,28.0,27.0,-100.00,NNE,18,1.0,5.0,96,0.00,,,0.23,0.000000,,2013-02-20 13:50:00,
2013-02-20 06:21:00,28.0,27.0,-100.00,NNE,18,1.0,5.0,96,0.00,,,0.23,0.000000,,2013-02-20 14:21:00,
2013-02-20 06:32:00,28.0,27.0,-100.00,NNE,18,1.0,5.0,96,0.00,,,0.23,0.000000,,2013-02-20 14:32:00,
2013-02-20 06:42:00,28.0,27.0,-100.00,NNE,18,1.0,5.0,96,0.00,,,0.23,0.000000,,2013-02-20 14:42:00,
2013-02-20 06:50:00,27.0,26.0,-100.00,NW,318,1.0,6.0,96,0.00,,,0.10,1.000000,,2013-02-20 14:50:00,
2013-02-20 07:11:00,27.0,26.0,-100.00,NW,318,1.0,6.0,96,0.00,,,0.10,1.000000,,2013-02-20 15:11:00,
2013-02-20 07:22:00,27.0,26.0,-100.00,NW,318,1.0,6.0,96,0.00,,,0.10,1.000000,,2013-02-20 15:22:00,
2013-02-20 07:32:00,27.0,26.0,-100.00,NW,318,1.0,6.0,96,0.00,,,0.10,1.000000,,2013-02-20 15:32:00,
2013-02-20 07:41:00,27.0,26.0,-100.00,NW,318,1.0,6.0,96,0.00,,,0.10,1.000000,,2013-02-20 15:41:00,
2013-02-20 07:50:00,28.0,27.0,-100.00,ESE,118,2.0,4.0,96,0.00,,,-99.99,17.000000,,2013-02-20 15:50:00,
2013-02-20 08:21:00,28.0,27.0,-100.00,ESE,118,2.0,4.0,96,0.00,,,-99.99,17.000000,,2013-02-20 16:21:00,
2013-02-20 08:32:00,28.0,27.0,-100.00,ESE,118,2.0,4.0,96,0.00,,,-99.99,17.000000,,2013-02-20 16:32:00,
2013-02-20 08:41:00,28.0,27.0,-100.00,ESE,118,2.0,4.0,96,0.00,,,-99.99,17.000000,,2013-02-20 16:41:00,
2013-02-20 08:50:00,32.0,30.0,-100.00,NW,305,1.0,5.0,94,0.00,,,0.03,187.000000,,2013-02-20 16:50:00,
2013-02-20 09:21:00,32.0,30.0,-100.00,NW,305,1.0,5.0,94,0.00,,,0.03,187.000000,,2013-02-20 17:21:00,
2013-02-20 09:32:00,32.0,30.0,-100.00,NW,305,1.0,5.0,94,0.00,,,0.03,187.000000,,2013-02-20 17:32:00,
2013-02-20 09:41:00,32.0,30.0,-100.00,NW,305,1.0,5.0,94,0.00,,,0.03,187.000000,,2013-02-20 17:41:00,
2013-02-20 09:50:00,38.0,36.0,-100.00,WNW,289,4.0,7.0,94,0.00,,,0.03,382.000000,,2013-02-20 17:50:00,
2013-02-20 10:21:00,38.0,36.0,-100.00,WNW,289,4.0,7.0,94,0.00,,,0.03,382.000000,,2013-02-20 18:21:00,
2013-02-20 10:31:00,38.0,36.0,-100.00,WNW,289,4.0,7.0,94,0.00,,,0.03,382.000000,,2013-02-20 18:31:00,
2013-02-20 10:41:00,38.0,36.0,-100.00,WNW,289,4.0,7.0,94,0.00,,,0.03,382.000000,,2013-02-20 18:41:00,
2013-02-20 10:50:00,44.0,36.0,-100.00,NW,322,6.0,13.0,72,0.00,,,0.01,529.000000,,2013-02-20 18:50:00,
2013-02-20 11:21:00,44.0,36.0,-100.00,NW,322,6.0,13.0,72,0.00,,,0.01,529.000000,,2013-02-20 19:21:00,
2013-02-20 11:31:00,44.0,36.0,-100.00,NW,322,6.0,13.0,72,0.00,,,0.01,529.000000,,2013-02-20 19:31:00,
2013-02-20 11:41:00,44.0,36.0,-100.00,NW,322,6.0,13.0,72,0.00,,,0.01,529.000000,,2013-02-20 19:41:00,
2013-02-20 11:50:00,48.0,35.0,-100.00,WNW,300,12.0,19.0,60,0.00,,,0.01,642.000000,,2013-02-20 19:50:00,
2013-02-20 12:21:00,48.0,35.0,-100.00,WNW,300,12.0,19.0,60,0.00,,,0.01,642.000000,,2013-02-20 20:21:00,
2013-02-20 12:31:00,48.0,35.0,-100.00,WNW,300,12.0,19.0,60,0.00,,,0.01,642.000000,,2013-02-20 20:31:00,
2013-02-20 12:41:00,48.0,35.0,-100.00,WNW,300,12.0,19.0,60,0.00,,,0.01,642.000000,,2013-02-20 20:41:00,
2013-02-20 12:50:00,51.0,34.0,-100.00,NW,306,14.0,22.0,51,0.00,,,0.01,677.000000,,2013-02-20 20:50:00,
2013-02-20 13:11:00,51.0,34.0,-100.00,NW,306,14.0,22.0,51,0.00,,,0.01,677.000000,,2013-02-20 21:11:00,
2013-02-20 13:21:00,51.0,34.0,-100.00,NW,306,14.0,22.0,51,0.00,,,0.01,677.000000,,2013-02-20 21:21:00,
2013-02-20 13:31:00,51.0,34.0,-100.00,NW,306,14.0,22.0,51,0.00,,,0.01,677.000000,,2013-02-20 21:31:00,
2013-02-20 13:41:00,51.0,34.0,-100.00,NW,306,14.0,22.0,51,0.00,,,0.01,677.000000,,2013-02-20 21:41:00,
2013-02-20 13:50:00,53.0,35.0,-100.00,WNW,299,15.0,22.0,50,0.00,,,0.01,660.000000,,2013-02-20 21:50:00,
2013-02-20 14:11:00,53.0,35.0,-100.00,WNW,299,15.0,22.0,50,0.00,,,0.01,660.000000,,2013-02-20 22:11:00,
2013-02-20 14:21:00,53.0,35.0,-100.00,WNW,299,15.0,22.0,50,0.00,,,0.01,660.000000,,2013-02-20 22:21:00,
2013-02-20 14:31:00,53.0,35.0,-100.00,WNW,299,15.0,22.0,50,0.00,,,0.01,660.000000,,2013-02-20 22:31:00,
2013-02-20 14:41:00,53.0,35.0,-100.00,WNW,299,15.0,22.0,50,0.00,,,0.01,660.000000,,2013-02-20 22:41:00,
2013-02-20 14:50:00,53.0,35.0,-100.00,WNW,290,14.0,21.0,50,0.00,,,0.00,576.000000,,2013-02-20 22:50:00,
2013-02-20 15:12:00,53.0,35.0,-100.00,WNW,290,14.0,21.0,50,0.00,,,0.00,576.000000,,2013-02-20 23:12:00,
2013-02-20 15:22:00,53.0,35.0,-100.00,WNW,290,14.0,21.0,50,0.00,,,0.00,576.000000,,2013-02-20 23:22:00,
2013-02-20 15:31:00,53.0,35.0,-100.00,WNW,290,14.0,21.0,50,0.00,,,0.00,576.000000,,2013-02-20 23:31:00,
2013-02-20 15:42:00,53.0,35.0,-100.00,WNW,290,14.0,21.0,50,0.00,,,0.00,576.000000,,2013-02-20 23:42:00,
2013-02-20 15:50:00,52.0,35.0,-100.00,WNW,302,15.0,24.0,53,0.00,,,0.00,463.000000,,2013-02-20 23:50:00,
2013-02-20 16:21:00,52.0,35.0,-100.00,WNW,302,15.0,24.0,53,0.00,,,0.00,463.000000,,2013-02-21 00:21:00,
2013-02-20 16:32:00,52.0,35.0,-100.00,WNW,302,15.0,24.0,53,0.00,,,0.00,463.000000,,2013-02-21 00:32:00,
2013-02-20 16:42:00,52.0,35.0,-100.00,WNW,302,15.0,24.0,53,0.00,,,0.00,463.000000,,2013-02-21 00:42:00,
2013-02-20 16:50:00,49.0,35.0,-100.00,WNW,299,13.0,24.0,59,0.00,,,0.00,281.000000,,2013-02-21 00:50:00,
2013-02-20 17:21:00,49.0,35.0,-100.00,WNW,299,13.0,24.0,59,0.00,,,0.00,281.000000,,2013-02-21 01:21:00,
2013-02-20 17:32:00,49.0,35.0,-100.00,WNW,299,13.0,24.0,59,0.00,,,0.00,281.000000,,2013-02-21 01:32:00,
2013-02-20 17:41:00,49.0,35.0,-100.00,WNW,299,13.0,24.0,59,0.00,,,0.00,281.000000,,2013-02-21 01:41:00,
2013-02-20 17:50:00,46.0,36.0,-100.00,NW,315,7.0,16.0,67,0.00,,,0.00,80.000000,,2013-02-21 01:50:00,
2013-02-20 18:11:00,46.0,36.0,-100.00,NW,315,7.0,16.0,67,0.00,,,0.00,80.000000,,2013-02-21 02:11:00,
2013-02-20 18:21:00,46.0,36.0,-100.00,NW,315,7.0,16.0,67,0.00,,,0.00,80.000000,,2013-02-21 02:21:00,
2013-02-20 18:32:00,46.0,36.0,-100.00,NW,315,7.0,16.0,67,0.00,,,0.00,80.000000,,2013-02-21 02:32:00,
2013-02-20 18:42:00,46.0,36.0,-100.00,NW,315,7.0,16.0,67,0.00,,,0.00,80.000000,,2013-02-21 02:42:00,
2013-02-20 18:50:00,44.0,36.0,-100.00,NW,314,10.0,17.0,73,0.00,,,0.00,2.000000,,2013-02-21 02:50:00,
2013-02-20 19:12:00,44.0,36.0,-100.00,NW,314,10.0,17.0,73,0.00,,,0.00,2.000000,,2013-02-21 03:12:00,
2013-02-20 19:21:00,44.0,36.0,-100.00,NW,314,10.0,17.0,73,0.00,,,0.00,2.000000,,2013-02-21 03:21:00,
2013-02-20 19:31:00,44.0,36.0,-100.00,NW,314,10.0,17.0,73,0.00,,,0.00,2.000000,,2013-02-21 03:31:00,
2013-02-20 19:41:00,44.0,36.0,-100.00,NW,314,10.0,17.0,73,0.00,,,0.00,2.000000,,2013-02-21 03:41:00,
2013-02-20 19:50:00,44.0,38.0,-100.00,NW,313,7.0,13.0,78,0.00,,,0.00,0.000000,,2013-02-21 03:50:00,
2013-02-20 20:21:00,44.0,38.0,-100.00,NW,313,7.0,13.0,78,0.00,,,0.00,0.000000,,2013-02-21 04:21:00,
2013-02-20 20:31:00,44.0,38.0,-100.00,NW,313,7.0,13.0,78,0.00,,,0.00,0.000000,,2013-02-21 04:31:00,
2013-02-20 20:41:00,44.0,38.0,-100.00,NW,313,7.0,13.0,78,0.00,,,0.00,0.000000,,2013-02-21 04:41:00,
2013-02-20 20:50:00,43.0,38.0,-100.00,NW,321,6.0,11.0,83,0.00,,,0.00,0.000000,,2013-02-21 04:50:00,
2013-02-20 21:22:00,43.0,38.0,-100.00,NW,321,6.0,11.0,83,0.00,,,0.00,0.000000,,2013-02-21 05:22:00,
2013-02-20 21:33:00,43.0,38.0,-100.00,NW,321,6.0,11.0,83,0.00,,,0.00,0.000000,,2013-02-21 05:33:00,
2013-02-20 21:43:00,43.0,38.0,-100.00,NW,321,6.0,11.0,83,0.00,,,0.00,0.000000,,2013-02-21 05:43:00,
2013-02-20 21:50:00,42.0,38.0,-100.00,NNW,346,4.0,7.0,85,0.00,,,0.00,0.000000,,2013-02-21 05:50:00,
2013-02-20 22:11:00,42.0,38.0,-100.00,NNW,346,4.0,7.0,85,0.00,,,0.00,0.000000,,2013-02-21 06:11:00,
2013-02-20 22:21:00,42.0,38.0,-100.00,NNW,346,4.0,7.0,85,0.00,,,0.00,0.000000,,2013-02-21 06:21:00,
2013-02-20 22:31:00,42.0,38.0,-100.00,NNW,346,4.0,7.0,85,0.00,,,0.00,0.000000,,2013-02-21 06:31:00,
2013-02-20 22:41:00,42.0,38.0,-100.00,NNW,346,4.0,7.0,85,0.00,,,0.00,0.000000,,2013-02-21 06:41:00,
2013-02-20 22:50:00,39.0,36.0,-100.00,West,274,1.0,7.0,90,0.00,,,0.00,0.000000,,2013-02-21 06:50:00,
2013-02-20 23:11:00,39.0,36.0,-100.00,West,274,1.0,7.0,90,0.00,,,0.00,0.000000,,2013-02-21 07:11:00,
2013-02-20 23:21:00,39.0,36.0,-100.00,West,274,1.0,7.0,90,0.00,,,0.00,0.000000,,2013-02-21 07:21:00,
2013-02-20 23:31:00,39.0,36.0,-100.00,West,274,1.0,7.0,90,0.00,,,0.00,0.000000,,2013-02-21 07:31:00,
2013-02-20 23:41:00,39.0,36.0,-100.00,West,274,1.0,7.0,90,0.00,,,0.00,0.000000,,2013-02-21 07:41:00,
2013-02-20 23:50:00,37.0,35.0,-100.00,West,263,1.0,3.0,94,0.00,,,0.00,0.000000,,2013-02-21 07:50:00,